Zurück zum Katalog

METEOR 2-17 DEB

AktivPO
NORAD 28989·DEBRIS·🇷🇺 Russia

Gestartet Jan 30, 1988 von Plesetsk Cosmodrome

Loading…

Nächste Überflüge (nächste 24 Stunden)

TLE

VeraltetSource: Space-Track

Epoche: Sep 1, 2026, 00:43 UTC

1 28989U 88005D   26244.03027659  .00002379  00000-0  12160-2 0  9990
2 28989  82.5280 148.2948 0027959 187.9613 172.1125 14.15040622671554

Verfolge METEOR 2-17 DEB in Echtzeit mit AllMySat

Download on the App Store